Location: ???????
(55.4362°N, 38.1183°E)
Time: 01:14:16
(UTC+00:00)

Cosmos 1932 - Pass Details

Date: 30 October 2021
Orbit: 943 x 987 km, 65.0° (Epoch: 01 December)

Event Time Altitude Azimuth Distance (km) Brightness Sun altitude
Rises 14:31:10 0° 313° (NW) 3,619 8.0 -5.9°
Reaches altitude 10° 14:33:43 10° 311° (NW) 2,673 7.3 -6.3°
Maximum altitude 14:39:55 71° 229° (SW) 1,004 4.8 -7.1°
Drops below altitude 10° 14:46:09 10° 147° (SSE) 2,680 6.6 -8.0°
Sets 14:48:42 0° 145° (SE) 3,629 7.3 -8.3°
